User: anonymous   Login
Location: Unspecified
(0.0000°N, 0.0000°E)
Time: 10:32:22
(UTC+00:00)
Language:

Tele-X - Orbit

View from above orbital plane
View from above orbital plane
View from above satellite
View from above satellite

Ground track
Ground track

The orbit data is extracted from the following two-line orbital elements,

1 19919U 89027A   18231.08033428 -.00000085 +00000-0 +00000-0 0  9992
2 19919 015.0815 016.0126 0004768 141.7025 218.6415 00.99181002088847
Epoch (UTC): 19 August 2018 01:55:40
Eccentricity: 0.0004768
inclination: 15.0815°
perigee height: 36074 km
apogee height: 36115 km
right ascension of ascending node: 16.0126°
argument of perigee: 141.7025°
revolutions per day: 0.99181002
mean anomaly at epoch: 218.6415°
orbit number at epoch: 8884

The dashed part of the orbit path shows where the satellite is in the earth's shadow,  

DLR